"Pseudo-MPEC" for P10Y73n

Created 2020 Mar 29 19:07:07 UT using Find_Orb

Click here for an explanation of pseudo-MPECs

 
 Astrometry: 
     P10Y73n  C2020 03 232')04O1ePf]fgF.C$UU(py!:p=Map`#QCgfLSQV?hB,4Q)l,G!i=F51
     P10Y73n  C2020 03 23!D2Kb_f2yCdv1*Id5%)#ik-L^mAstrometryMredacted;9\E:'WF51
     P10Y73n  C2020 03 23@Cp,UpPsFa#IK8click).o+Qal#y_P8vu-WRMI3/sc)s$`C)SL7HF51
     P10Y73n  C2020 03 231hc#kvU8qo$CI'VYTtbMxHherep(!vs$-bA0-^M)m?U/5Y,8:bqnF51
     P10Y73n  C2020 03 24.41384 13 00 43.63 +01 19 03.6    ~3OAb 21.6 GVNEOCPI52
     P10Y73n  C2020 03 24.42010 13 00 43.07 +01 19 02.6    ~3OAb 21.6 GVNEOCPI52
     P10Y73n  C2020 03 24.42841 13 00 42.25 +01 19 00.0    ~3OAb 21.5 GVNEOCPI52
     P10Y73n  C2020 03 27.08304 12 56 12.43 +01 06 23.5    ~3RAM 21.5 VVNEOCP033
     P10Y73n  C2020 03 27.08662 12 56 12.05 +01 06 22.0    ~3RAM 21.5 VVNEOCP033
     P10Y73n KC2020 03 29\YA5\l=7h6ovR7`:ugChaRQPe]h%y`s6soKUaBG)2YeS@%(aJH/!H21
     P10Y73n KC2020 03 29xt8gl's\hafor0))13;MlZ[f9=(phP%C)y6Jy\QM+o%oybfW.X8iH21
     P10Y73n KC2020 03 29y+`'!NWZexplanationL:4b3DI:U0AJc]QO:_a,(`8Bgmqy(wm92H21

Station data:
(033) Karl Schwarzschild Observatory, Tautenburg  (N50.980140 E11.711240)
   Germany. 1.3-m Schmidt.
(F51) Pan-STARRS 1, Haleakala  (N20.707235 W156.255910)  US/Hawaii.
   Observers N. Primak, A. Schultz, S. Watters, J. Thiel, T. Goggia. Measurer
   PS1 Science Consortium. 1.8-m Ritchey-Chrétien + CCD.
(H21) Astronomical Research Observatory, Westfield  (N39.483057 W87.968270)
   US/Illinois. 0.76-m f/3.0 astrograph + CCD.
(I52) Steward Observatory, Mt. Lemmon Station  (N32.442547 W110.788920)
   US/Arizona.  Observers T. A. Pruyne, B. M. Africano, E. J. Christensen, G.
   A. Farneth, D. C. Fuls, A. R. Gibbs, A. D. Grauer, H. Gröller, J. A.
   Johnson, R. A. Kowalski, S. M. Larson, G. J. Leonard, D. Rankin, R. L.
   Seaman, F. C. Shelly. 1.0-m reflector + CCD.

Orbital elements:  P10Y73n
   Perihelion 2021 May 4.991098 +/- 16.3 TT = 23:47:10 (JD 2459339.491098)
Epoch 2020 Mar 29.0 TT = JDT 2458937.5   Earth MOID: 0.7078   AutoNEOCP
M 217.05625775 +/- 14               (J2000 ecliptic)
n   0.35558932 +/- 0.021            Peri.  325.19649 +/- 9
a   1.97319606 +/- 0.0777           Node    16.05516 +/- 0.7
e   0.1488022 +/- 0.0328            Incl.   30.40825 +/- 4.2
P   2.77                   H 19.0   G  0.15   U 10.2  
q 1.67958012 +/- 0.003    Q 2.26681201 +/- 0.148
From 12 observations 2020 Mar. 23-29; mean residual 0".32
Residuals in arcseconds: 
200323 F51  .03+  .01+    200324 I52  .74-  .33-    200327 033  .17-  .46-    
200323 F51  .14-  .04-    200324 I52  .48+  .41+    200329 H21  .13-  .24+    
200323 F51  .26-  .02-    200324 I52  .94+  .13+    200329 H21  .05+  .05-    
200323 F51  .16-  .08+    200327 033  .08-  .00     200329 H21  .14+  .10+    

Ephemerides (geocentric):
Date (UTC) HH   RA              Dec         delta   r     elong  mag " sig PA
---- -- -- --  -------------   -----------  ------ ------ -----  --- ---- ---
2020 03 29 19  12 51 31.047   +00 53 06.44  1.2249 2.2202 173.7 21.4 .094  74
2020 03 29 20  12 51 26.679   +00 52 53.83  1.2248 2.2202 173.7 21.4 .111  85
2020 03 29 21  12 51 22.310   +00 52 41.20  1.2247 2.2201 173.8 21.4 .132  94
2020 03 29 22  12 51 17.940   +00 52 28.57  1.2246 2.2201 173.8 21.4 .155 100
2020 03 29 23  12 51 13.569   +00 52 15.93  1.2246 2.2201 173.8 21.4 .181 104
2020 03 30 00  12 51 09.197   +00 52 03.28  1.2245 2.2200 173.8 21.4 .208 107
2020 03 30 01  12 51 04.824   +00 51 50.62  1.2244 2.2200 173.9 21.4 .237 110
2020 03 30 02  12 51 00.451   +00 51 37.95  1.2243 2.2199 173.9 21.4 .267 112
2020 03 30 03  12 50 56.076   +00 51 25.28  1.2243 2.2199 173.9 21.4 .297 113
2020 03 30 04  12 50 51.701   +00 51 12.60  1.2242 2.2199 173.9 21.4 .329 115
2020 03 30 05  12 50 47.325   +00 50 59.90  1.2241 2.2198 174.0 21.4 .362 116
2020 03 30 06  12 50 42.948   +00 50 47.20  1.2240 2.2198 174.0 21.4 .396 117
2020 03 30 07  12 50 38.570   +00 50 34.49  1.2240 2.2198 174.0 21.4 .431 117
2020 03 30 08  12 50 34.191   +00 50 21.78  1.2239 2.2197 174.0 21.4 .466 118
2020 03 30 09  12 50 29.812   +00 50 09.05  1.2238 2.2197 174.1 21.4 .503 118
2020 03 30 10  12 50 25.431   +00 49 56.32  1.2237 2.2197 174.1 21.4 .541 119
2020 03 30 11  12 50 21.050   +00 49 43.58  1.2237 2.2196 174.1 21.4 .579 119
2020 03 30 12  12 50 16.668   +00 49 30.82  1.2236 2.2196 174.1 21.4 .618 119
2020 03 30 13  12 50 12.286   +00 49 18.06  1.2235 2.2195 174.2 21.4 .658 119
2020 03 30 14  12 50 07.902   +00 49 05.30  1.2235 2.2195 174.2 21.4 .699 120
2020 03 30 15  12 50 03.518   +00 48 52.52  1.2234 2.2195 174.2 21.4 .741 120
2020 03 30 16  12 49 59.133   +00 48 39.73  1.2233 2.2194 174.2 21.4 .784 120
2020 03 30 17  12 49 54.747   +00 48 26.94  1.2233 2.2194 174.2 21.4 .828 120
2020 03 30 18  12 49 50.361   +00 48 14.14  1.2232 2.2194 174.3 21.4 .873 120
2020 03 30 19  12 49 45.973   +00 48 01.33  1.2231 2.2193 174.3 21.4 .919 120
2020 03 30 20  12 49 41.585   +00 47 48.51  1.2231 2.2193 174.3 21.4 .965 120
2020 03 30 21  12 49 37.197   +00 47 35.68  1.2230 2.2193 174.3 21.4 1.01 120
2020 03 30 22  12 49 32.807   +00 47 22.84  1.2229 2.2192 174.3 21.4 1.06 120
2020 03 30 23  12 49 28.417   +00 47 10.00  1.2229 2.2192 174.4 21.4 1.11 120
2020 03 31 00  12 49 24.027   +00 46 57.15  1.2228 2.2191 174.4 21.4 1.16 120
2020 03 31 01  12 49 19.635   +00 46 44.28  1.2227 2.2191 174.4 21.4 1.21 120
2020 03 31 02  12 49 15.243   +00 46 31.41  1.2227 2.2191 174.4 21.4 1.27 120
2020 03 31 03  12 49 10.851   +00 46 18.53  1.2226 2.2190 174.4 21.4 1.32 120
2020 03 31 04  12 49 06.457   +00 46 05.64  1.2225 2.2190 174.4 21.4 1.37 120
2020 03 31 05  12 49 02.063   +00 45 52.75  1.2225 2.2190 174.4 21.4 1.43 120
2020 03 31 06  12 48 57.669   +00 45 39.84  1.2224 2.2189 174.5 21.4 1.49 120
2020 03 31 07  12 48 53.273   +00 45 26.93  1.2224 2.2189 174.5 21.4 1.54 119
2020 03 31 08  12 48 48.877   +00 45 14.01  1.2223 2.2188 174.5 21.4 1.60 119
2020 03 31 09  12 48 44.481   +00 45 01.08  1.2222 2.2188 174.5 21.4 1.66 119
2020 03 31 10  12 48 40.084   +00 44 48.14  1.2222 2.2188 174.5 21.4 1.72 119
2020 03 31 11  12 48 35.686   +00 44 35.19  1.2221 2.2187 174.5 21.4 1.79 119
2020 03 31 12  12 48 31.288   +00 44 22.23  1.2221 2.2187 174.5 21.4 1.85 119
2020 03 31 13  12 48 26.889   +00 44 09.26  1.2220 2.2187 174.5 21.4 1.91 119
2020 03 31 14  12 48 22.490   +00 43 56.29  1.2220 2.2186 174.5 21.4 1.98 119
2020 03 31 15  12 48 18.090   +00 43 43.31  1.2219 2.2186 174.5 21.4 2.04 119
2020 03 31 16  12 48 13.690   +00 43 30.32  1.2218 2.2185 174.6 21.4 2.11 119
2020 03 31 17  12 48 09.289   +00 43 17.32  1.2218 2.2185 174.6 21.4 2.18 118
2020 03 31 18  12 48 04.887   +00 43 04.31  1.2217 2.2185 174.6 21.4 2.25 118